[[{"header":{"parameterUnit":"m.s-1","parameterCategory":1,"la1":30.2991,"la2":30.254,"lo1":-89.0895,"lo2":-89.0444,"dy":0.0017,"dx":0.0017,"nx":28,"ny":28,"refTime":"2025-03-17T21:00:00:Z","depth":0,"parameterNumber":2,"parameterNumberName":"U-component_of_WINDS"},"data":[0,0,0,0,0,0,0,0,0,0,0,0,0,0,0,0,0,0,0,0,0,0,0,0,0,0,0,0,0,0,0,0,0,0,0,0,0,0,0,0,0,0,0,0,0,0,0,0,0,0,0,0,0,0,0,0,0,0,2.1906,2.1906,0,2.1949,2.195,2.195,2.1956,2.1955,2.1955,2.1955,2.1997,2.1999,2.2,0,0,0,0,0,0,0,0,0,0,0,0,0,2.1827,2.1828,2.1906,2.1906,2.1907,2.1949,2.195,2.195,2.1956,2.1955,2.1955,2.1954,2.1997,2.1998,2.2,0,0,0,0,0,0,0,0,0,0,0,0,0,2.1865,2.1829,2.1906,2.1915,2.1916,2.1949,2.195,2.1951,2.1956,2.1955,2.1955,2.1954,2.1996,2.1998,2.2,2.2027,0,0,2.2007,2.2008,0,0,0,0,0,0,0,0,2.1863,2.1868,2.1913,2.1914,2.1916,2.1947,2.1938,2.1976,2.1956,2.1941,2.1955,2.1954,2.1981,2.1984,2.1994,2.2029,2.2031,2.2008,2.2009,2.201,2.2011,0,0,0,0,0,0,0,2.186,2.1866,2.1923,2.1914,2.1915,2.1917,2.1921,2.1945,2.1964,2.1942,2.1943,2.1948,2.1981,2.1991,2.1995,2.2031,2.2007,2.201,2.2011,2.2012,2.2092,2.2093,0,0,0,0,0,0,2.1856,2.1864,2.1922,2.1924,2.1887,2.1918,2.1924,2.1937,2.1963,2.1967,2.1948,2.1948,2.1988,2.1992,2.1996,2.2029,2.201,2.2012,2.2013,2.2091,2.2092,2.2093,0,0,0,0,0,0,2.1854,2.1861,2.192,2.1894,2.1902,2.1921,2.1936,2.1938,2.1949,2.1968,2.1971,2.1955,2.1987,2.1993,2.202,2.2031,2.2013,2.2015,2.209,2.2092,2.2093,2.2096,0,0,0,0,0,0,2.1852,2.186,2.187,2.1894,2.1903,2.1943,2.1936,2.194,2.1953,2.1953,2.1975,2.1979,2.1987,2.2016,2.2022,2.2034,2.2017,2.2089,2.2091,2.2092,2.2095,2.2097,2.2099,0,0,0,0,0,2.1849,2.1869,2.1871,2.1878,2.1916,2.1943,2.1948,2.1959,2.1954,2.1964,2.1977,2.1978,2.2029,2.2019,2.2025,2.2038,2.2089,2.2091,2.2092,2.2094,2.2097,2.2099,0,0,0,0,0,0,2.1844,2.1872,2.1875,2.1903,2.1921,2.1944,2.1957,2.1961,2.198,2.1979,2.1991,2.1996,2.2022,2.2033,2.2021,2.2066,2.2058,2.2062,2.2058,2.206,2.2062,2.2059,2.2019,0,0,0,0,0,2.1847,2.1867,2.189,2.1913,2.1922,2.1938,2.195,2.1957,2.1976,2.1983,2.1998,2.2016,2.2036,2.2049,2.2069,2.2097,2.2102,2.2109,2.2111,2.2113,2.2115,2.2132,2.2135,2.2099,2.2099,2.2099,0,0,2.1852,2.1869,2.1881,2.1912,2.1927,2.1947,2.1944,2.1966,2.1981,2.1986,2.2013,2.2024,2.2045,2.2073,2.2086,2.2083,2.2126,2.2115,2.2116,2.2117,2.2134,2.2137,2.214,2.21,2.21,2.21,0,0,2.1871,2.1886,2.1907,2.1923,2.1946,2.1957,2.1962,2.1986,2.1994,2.2021,2.2026,2.2044,2.2079,2.2094,2.2106,2.2134,2.2135,2.214,2.215,2.2166,2.2169,2.2171,2.2181,2.2185,2.2142,2.2142,2.2142,0,2.1873,2.1905,2.1917,2.1939,2.1953,2.1961,2.1982,2.1997,2.2024,2.2034,2.203,2.2075,2.2089,2.2121,2.2128,2.2138,2.2144,2.2136,2.2168,2.217,2.2173,2.2183,2.2186,2.2143,2.2143,2.2142,2.2142,0,2.1907,2.1929,2.1944,2.1972,2.1988,2.2009,2.2025,2.2039,2.2046,2.2057,2.2085,2.2104,2.2128,2.2136,2.2141,2.2169,2.2167,2.2165,2.2158,2.2177,2.2186,2.219,2.2143,2.2143,2.2143,2.2143,0,0,2.1922,2.1959,2.1964,2.1978,2.2005,2.2022,2.2045,2.2069,2.2082,2.2101,2.212,2.2151,2.215,2.2164,2.2172,2.2186,2.2208,2.2183,2.2184,2.2187,2.224,2.224,2.2244,2.221,2.221,2.2211,2.2238,0,2.1944,2.1985,2.1998,2.2032,2.2053,2.2062,2.2082,2.21,2.2113,2.2132,2.2145,2.2167,2.2164,2.2173,2.2188,2.2202,2.2218,2.22,2.2227,2.2228,2.2221,2.2249,2.2249,2.2274,2.2242,2.2242,2.2243,0,2.1975,2.1997,2.2033,2.2059,2.2068,2.2086,2.211,2.2129,2.2151,2.2159,2.2176,2.2183,2.2207,2.22,2.2233,2.2221,2.2233,2.2242,2.2243,2.2245,2.2236,2.2251,2.2282,2.2285,2.2249,2.2248,2.2248,0,2.1982,2.2021,2.2048,2.2059,2.209,2.2103,2.2116,2.2138,2.2152,2.2174,2.2183,2.2207,2.222,2.2238,2.2252,2.2245,2.2284,2.2278,2.2291,2.2291,2.2298,2.2297,2.233,2.2307,2.2307,2.2307,2.2307,0,2.2005,2.2027,2.2052,2.2068,2.2093,2.2109,2.2133,2.2147,2.2167,2.2186,2.2195,2.2213,2.223,2.2251,2.2261,2.2288,2.2293,2.23,2.2303,2.2299,2.2298,2.2306,2.2305,2.2308,2.2308,2.2307,2.2307,0,2.2016,2.2034,2.2064,2.2092,2.21,2.2117,2.2141,2.2157,2.2171,2.2196,2.2202,2.2223,2.2248,2.2264,2.2295,2.2302,2.2331,2.2333,2.2324,2.2325,2.2337,2.2336,2.2376,2.2382,2.2356,2.2356,2.2356,0,2.2029,2.2046,2.2077,2.2091,2.2105,2.2128,2.2143,2.216,2.2176,2.2204,2.2217,2.2242,2.2264,2.2303,2.232,2.2345,2.2347,2.236,2.235,2.2347,2.2347,2.2345,2.2347,2.236,2.2361,2.2361,2.2361,0,2.205,2.2058,2.2081,2.2107,2.2126,2.2147,2.2168,2.2179,2.2199,2.2216,2.2242,2.2259,2.2292,2.2317,2.2343,2.2357,2.2362,2.2364,2.2369,2.2364,2.2358,2.2361,2.2327,2.2363,2.2362,2.2362,2.2362,2.2362,2.2062,2.2078,2.2103,2.2128,2.2146,2.2166,2.2184,2.22,2.2223,2.2251,2.226,2.2287,2.231,2.2346,2.2361,2.2382,2.2381,2.2387,2.2388,2.239,2.239,2.2356,2.2387,2.2387,2.2387,2.2387,2.2387,0,2.2083,2.21,2.2123,2.2153,2.2173,2.2179,2.2203,2.2219,2.2243,2.2265,2.2286,2.2317,2.2342,2.2363,2.2389,2.2402,2.2405,2.2408,2.2407,2.241,2.239,2.2383,2.2405,2.2405,2.2405,2.2405,2.2405,2.2405,2.2097,2.2125,2.2136,2.2174,2.2191,2.2218,2.2232,2.225,2.2268,2.2302,2.2324,2.2338,2.2359,2.2387,2.2411,2.2416,2.2425,2.2428,2.2434,2.2414,2.2411,2.2409,2.2403,2.243,2.243,2.2452,2.2453,2.2453]},{"header":{"parameterUnit":"m.s-1","parameterCategory":1,"la1":30.2991,"la2":30.254,"lo1":-89.0895,"lo2":-89.0444,"dy":0.0017,"dx":0.0017,"nx":28,"ny":28,"refTime":"2025-03-17T21:00:00:Z","depth":0,"parameterNumber":3,"parameterNumberName":"V-component_of_WINDS"},"data":[0,0,0,0,0,0,0,0,0,0,0,0,0,0,0,0,0,0,0,0,0,0,0,0,0,0,0,0,0,0,0,0,0,0,0,0,0,0,0,0,0,0,0,0,0,0,0,0,0,0,0,0,0,0,0,0,0,0,-2.9655,-2.9656,0,-2.9734,-2.9735,-2.9736,-2.9788,-2.9788,-2.9788,-2.9789,-2.9864,-2.9865,-2.9867,0,0,0,0,0,0,0,0,0,0,0,0,0,-2.9546,-2.9548,-2.9655,-2.9656,-2.9657,-2.9734,-2.9735,-2.9736,-2.9788,-2.9788,-2.9788,-2.9789,-2.9863,-2.9865,-2.9867,0,0,0,0,0,0,0,0,0,0,0,0,0,-2.9606,-2.9549,-2.9655,-2.9692,-2.9696,-2.9734,-2.9735,-2.9736,-2.9787,-2.9788,-2.9789,-2.9789,-2.9862,-2.9865,-2.9867,-2.9872,0,0,-2.9875,-2.9876,0,0,0,0,0,0,0,0,-2.9603,-2.961,-2.9686,-2.969,-2.9694,-2.9752,-2.9724,-2.9782,-2.9787,-2.9753,-2.9789,-2.9789,-2.9826,-2.9831,-2.9845,-2.9876,-2.9879,-2.9875,-2.9877,-2.9878,-2.9879,0,0,0,0,0,0,0,-2.9598,-2.9607,-2.9686,-2.9687,-2.9692,-2.9704,-2.9713,-2.9735,-2.9785,-2.9756,-2.976,-2.9769,-2.9828,-2.9842,-2.9847,-2.988,-2.9875,-2.9877,-2.9879,-2.988,-2.9924,-2.9924,0,0,0,0,0,0,-2.9589,-2.9603,-2.9684,-2.9688,-2.9649,-2.9706,-2.9716,-2.9733,-2.9785,-2.9793,-2.9768,-2.9771,-2.9838,-2.9844,-2.985,-2.9862,-2.9878,-2.988,-2.9882,-2.9924,-2.9924,-2.9923,0,0,0,0,0,0,-2.9586,-2.9596,-2.968,-2.9647,-2.9659,-2.9707,-2.9725,-2.9734,-2.9748,-2.9794,-2.9803,-2.9774,-2.9838,-2.9846,-2.9868,-2.9865,-2.9881,-2.9884,-2.9925,-2.9924,-2.9924,-2.9884,0,0,0,0,0,0,-2.9583,-2.9594,-2.9597,-2.9647,-2.966,-2.9697,-2.9725,-2.9735,-2.9753,-2.9757,-2.9802,-2.981,-2.9839,-2.9864,-2.987,-2.9869,-2.9885,-2.9925,-2.9924,-2.9924,-2.9886,-2.9882,-2.9879,0,0,0,0,0,-2.9579,-2.958,-2.9597,-2.9606,-2.9665,-2.9697,-2.9705,-2.9741,-2.9752,-2.9756,-2.9786,-2.9808,-2.9864,-2.9865,-2.9873,-2.9872,-2.9925,-2.9925,-2.9924,-2.9887,-2.9883,-2.9879,0,0,0,0,0,0,-2.9525,-2.9587,-2.9606,-2.9624,-2.9655,-2.9706,-2.971,-2.9734,-2.9761,-2.9764,-2.9805,-2.9815,-2.9833,-2.9855,-2.9855,-2.9882,-2.9898,-2.9898,-2.9867,-2.9864,-2.986,-2.9855,-2.9888,0,0,0,0,0,-2.9516,-2.9538,-2.9591,-2.9601,-2.9617,-2.9661,-2.9676,-2.9702,-2.9735,-2.9748,-2.978,-2.981,-2.9836,-2.9851,-2.9876,-2.989,-2.9901,-2.9893,-2.989,-2.9887,-2.9887,-2.99,-2.9897,-2.9921,-2.9921,-2.9921,0,0,-2.9495,-2.9532,-2.9543,-2.9592,-2.9619,-2.9642,-2.9671,-2.9692,-2.971,-2.9751,-2.9775,-2.9799,-2.9836,-2.9855,-2.9865,-2.9874,-2.9884,-2.9886,-2.9884,-2.9885,-2.9899,-2.9896,-2.9894,-2.9921,-2.9921,-2.9921,0,0,-2.9471,-2.95,-2.9514,-2.9543,-2.9585,-2.9616,-2.9619,-2.9668,-2.9687,-2.9712,-2.9745,-2.9765,-2.9806,-2.9833,-2.9851,-2.9843,-2.9865,-2.985,-2.9832,-2.9844,-2.9842,-2.9841,-2.9839,-2.9838,-2.9849,-2.9849,-2.9849,0,-2.9439,-2.9476,-2.9517,-2.9539,-2.956,-2.9602,-2.9618,-2.9642,-2.969,-2.9703,-2.9713,-2.977,-2.9797,-2.9824,-2.9823,-2.9836,-2.9842,-2.9844,-2.9839,-2.9838,-2.9837,-2.9837,-2.9836,-2.9847,-2.9848,-2.9848,-2.9848,0,-2.9437,-2.9462,-2.9468,-2.9518,-2.954,-2.9557,-2.9602,-2.9619,-2.9644,-2.9673,-2.97,-2.9735,-2.977,-2.9779,-2.9801,-2.9811,-2.9815,-2.9831,-2.9848,-2.9833,-2.9833,-2.9833,-2.9845,-2.9845,-2.9846,-2.9846,0,0,-2.9377,-2.9454,-2.9455,-2.948,-2.9533,-2.9553,-2.9573,-2.9611,-2.9626,-2.9658,-2.9677,-2.9714,-2.9732,-2.9753,-2.9779,-2.9789,-2.9784,-2.9805,-2.9807,-2.9801,-2.9799,-2.9787,-2.9786,-2.9799,-2.9799,-2.9799,-2.9797,0,-2.9361,-2.9403,-2.9444,-2.947,-2.9496,-2.9538,-2.9557,-2.9591,-2.962,-2.9646,-2.9677,-2.9704,-2.9723,-2.9737,-2.9749,-2.9782,-2.9784,-2.9782,-2.9817,-2.9818,-2.9808,-2.9786,-2.9772,-2.9768,-2.9797,-2.9797,-2.9797,0,-2.9347,-2.9383,-2.9413,-2.9469,-2.948,-2.9496,-2.9537,-2.956,-2.9601,-2.9621,-2.9648,-2.9677,-2.9702,-2.9717,-2.9752,-2.975,-2.9767,-2.9786,-2.9787,-2.9791,-2.9806,-2.9791,-2.9767,-2.9766,-2.9797,-2.9797,-2.9797,0,-2.9304,-2.9358,-2.9385,-2.9405,-2.9468,-2.948,-2.9506,-2.9548,-2.9569,-2.9604,-2.9619,-2.9654,-2.9674,-2.9701,-2.9739,-2.9746,-2.9772,-2.9788,-2.979,-2.9789,-2.9792,-2.9792,-2.9772,-2.9802,-2.9802,-2.9802,-2.9802,0,-2.9282,-2.93,-2.9367,-2.9383,-2.9405,-2.9452,-2.9472,-2.9502,-2.954,-2.9563,-2.9601,-2.9621,-2.9671,-2.9697,-2.9727,-2.9754,-2.9762,-2.9779,-2.9787,-2.9776,-2.9774,-2.9788,-2.979,-2.9802,-2.9802,-2.9802,-2.9802,0,-2.9236,-2.9282,-2.9314,-2.9374,-2.939,-2.9403,-2.9454,-2.9472,-2.9505,-2.9534,-2.9544,-2.9595,-2.9629,-2.9671,-2.9716,-2.9737,-2.976,-2.9772,-2.9747,-2.9752,-2.9752,-2.9752,-2.974,-2.9742,-2.977,-2.9769,-2.9769,0,-2.922,-2.9235,-2.9299,-2.9319,-2.9345,-2.9376,-2.94,-2.9447,-2.947,-2.9521,-2.9532,-2.957,-2.9603,-2.9655,-2.9695,-2.9732,-2.9745,-2.9739,-2.975,-2.974,-2.9747,-2.9746,-2.9749,-2.9735,-2.9734,-2.9734,-2.9734,0,-2.9187,-2.921,-2.9244,-2.9287,-2.9315,-2.935,-2.9387,-2.94,-2.9456,-2.9479,-2.9517,-2.9542,-2.9592,-2.9629,-2.9672,-2.9699,-2.9726,-2.973,-2.9733,-2.9722,-2.9708,-2.9718,-2.974,-2.973,-2.973,-2.973,-2.9731,-2.9731,-2.9156,-2.9174,-2.9223,-2.926,-2.9294,-2.9328,-2.935,-2.9388,-2.942,-2.9466,-2.9492,-2.9529,-2.9573,-2.9633,-2.966,-2.9689,-2.9699,-2.9701,-2.9702,-2.9703,-2.97,-2.9704,-2.9697,-2.9697,-2.9697,-2.9697,-2.9697,0,-2.9127,-2.9162,-2.9196,-2.9249,-2.9279,-2.9306,-2.9349,-2.9371,-2.9404,-2.9444,-2.9477,-2.9521,-2.9559,-2.9604,-2.9645,-2.966,-2.9673,-2.9669,-2.9668,-2.9675,-2.9688,-2.9683,-2.9658,-2.9658,-2.9658,-2.9658,-2.9658,-2.9658,-2.9115,-2.9147,-2.9177,-2.9227,-2.9261,-2.93,-2.9323,-2.9356,-2.9388,-2.9437,-2.947,-2.95,-2.9543,-2.9588,-2.9624,-2.9636,-2.965,-2.9642,-2.9658,-2.967,-2.9673,-2.9676,-2.9672,-2.9644,-2.9644,-2.9642,-2.9642,-2.9642]}]]